HULIANWANG DIGUI-127

Last updated on Fri Dec 19 2025 00:02:10 GMT+0000 (Coordinated Universal Time)

1 67067U 25295J 25352.51826367 -.00000874 00000+0 -29528-3 0 9993 2 67067 50.0053 347.8122 0010874 274.5402 85.4270 14.26250522 940
UTC large
Height (km)
Speed (km/s)
/
Latitude / Longitude
Inclination (degrees)
Orbital Period (minutes)
Azimuth
Elevation
Range (km)
Doppler Factor

Next 0 passes for location: London (51.5072 / 0.1276)

Sorry there are no passes over London.